TimeMDT,TemperatureF,Dew PointF,Humidity,Sea Level PressureIn,VisibilityMPH,Wind Direction,Wind SpeedMPH,Gust SpeedMPH,PrecipitationIn,Events,Conditions,WindDirDegrees,DateUTC
12:53 AM,63.0,42.1,46,30.05,10.0,SE,13.8,23.0,N/A,,Clear,140,2013-05-10 06:53:00
1:53 AM,62.1,41.0,46,30.07,10.0,ESE,9.2,-,N/A,,Clear,110,2013-05-10 07:53:00
2:53 AM,60.1,42.1,51,30.07,10.0,SE,8.1,-,N/A,,Clear,130,2013-05-10 08:53:00
3:53 AM,57.9,42.1,56,30.07,10.0,SE,8.1,-,N/A,,Clear,130,2013-05-10 09:53:00
4:53 AM,55.9,43.0,62,30.08,10.0,SE,9.2,-,N/A,,Clear,130,2013-05-10 10:53:00
5:53 AM,55.4,42.8,63,30.16,10.0,SE,6.9,-,N/A,,Clear,130,2013-05-10 11:53:00
6:53 AM,54.0,42.1,64,30.12,10.0,SE,5.8,-,N/A,,Clear,130,2013-05-10 12:53:00
7:53 AM,57.9,42.1,56,30.14,10.0,ESE,4.6,-,N/A,,Clear,110,2013-05-10 13:53:00
8:53 AM,64.0,42.1,45,30.14,10.0,Calm,Calm,-,N/A,,Clear,0,2013-05-10 14:53:00
9:53 AM,69.1,39.0,33,30.15,10.0,Calm,Calm,-,N/A,,Clear,0,2013-05-10 15:53:00
10:53 AM,71.6,39.2,31,30.21,10.0,Calm,Calm,-,N/A,,Clear,0,2013-05-10 16:53:00
11:53 AM,73.9,39.9,29,30.15,10.0,Calm,Calm,-,N/A,,Clear,0,2013-05-10 17:53:00
12:53 PM,77.0,39.9,26,30.14,10.0,Calm,Calm,-,N/A,,Clear,0,2013-05-10 18:53:00
1:53 PM,81.0,39.9,23,30.12,10.0,Variable,3.5,-,N/A,,Clear,0,2013-05-10 19:53:00
2:53 PM,82.9,37.0,19,30.10,10.0,West,8.1,-,N/A,,Clear,270,2013-05-10 20:53:00
3:53 PM,84.0,37.0,19,30.09,10.0,WNW,8.1,-,N/A,,Clear,300,2013-05-10 21:53:00
4:53 PM,84.0,37.0,19,30.08,10.0,West,5.8,-,N/A,,Clear,280,2013-05-10 22:53:00
5:53 PM,84.9,35.1,17,30.07,10.0,West,9.2,-,N/A,,Unknown,270,2013-05-10 23:53:00
6:53 PM,84.0,32.0,15,30.06,10.0,West,10.4,-,N/A,,Clear,280,2013-05-11 00:53:00
7:53 PM,82.9,33.1,17,30.06,10.0,West,8.1,-,N/A,,Unknown,270,2013-05-11 01:53:00
8:53 PM,80.1,35.1,20,30.07,10.0,Calm,Calm,-,N/A,,Clear,0,2013-05-11 02:53:00
9:53 PM,73.9,35.1,24,30.09,10.0,SE,6.9,-,N/A,,Clear,140,2013-05-11 03:53:00
10:53 PM,69.1,37.9,32,30.10,10.0,ESE,6.9,-,N/A,,Clear,110,2013-05-11 04:53:00
11:53 PM,66.0,39.9,38,30.11,10.0,SE,6.9,-,N/A,,Clear,130,2013-05-11 05:53:00